COSMOS 2474 (742)

Last updated on Jan. 18, 2020, 4:38 a.m. UTC

1 37829U 11055A   20017.25534339  .00000053  00000-0  00000-0 0  9993
2 37829  64.5361 152.2637 0008189 240.9037 302.2352  2.13101878 64539
UTC
Height (km)
Latitude
Longitude
Inclination
Orbital Period
UTC large
Height (km)
Speed (km/s)
/
Latitude / Longitude
Inclination (degrees)
Orbital Period (minutes)
Azimuth
Elevation
Range (km)
Doppler Factor
iOS Compass Heading
iOS Angle

Next 30 passes for location: Hong Kong

Rise time Rise Azimuth (degrees) Set time Set Azimuth (degrees) Duration Max altitude (degrees)

No matching passes for this satellites